DW7348 Weather Reports


time (UTC)temp
F
wind
direction
speed
knots
gust
knots
rain 1hr
in
rain 24hr
in
rain mn
in
humidity
%
barometer
mb
20260504214539 82 0 0.9 4.3 0.00 0.00 0.00 30 1015.2
20260504213052 83 22 0.9 5.2 0.00 0.00 0.00 31 1015.2
20260504211549 82 111 0.0 3.5 0.00 0.00 0.00 31 1015.2
20260504210045 82 106 0.0 5.2 0.00 0.00 0.00 30 1015.4
20260504204540 81 61 0.9 6.1 0.00 0.00 0.00 30 1015.6
20260504203048 81 0 0.0 4.3 0.00 0.00 0.00 31 1015.7
20260504201540 80 102 0.0 2.6 0.00 0.00 0.00 32 1015.7
20260504200047 81 0 0.0 3.5 0.00 0.00 0.00 32 1016.0
20260504194549 79 0 0.0 6.1 0.00 0.00 0.00 34 1016.0
20260504193041 80 53 0.9 3.5 0.00 0.00 0.00 33 1016.3
20260504191541 80 312 1.7 3.5 0.00 0.00 0.00 34 1016.5
20260504190038 79 0 0.0 4.3 0.00 0.00 0.00 32 1016.9
20260504184538 78 13 0.0 3.5 0.00 0.00 0.00 34 1017.1
20260504183039 78 111 0.9 5.2 0.00 0.00 0.00 34 1017.2
20260504181546 77 96 0.9 6.1 0.00 0.00 0.00 36 1017.4
20260504180048 77 0 0.0 3.5 0.00 0.00 0.00 35 1017.5
20260504174544 76 360 1.7 4.3 0.00 0.00 0.00 36 1017.6
20260504173049 74 0 0.0 4.3 0.00 0.00 0.00 37 1017.8
20260504171549 73 0 1.7 6.1 0.00 0.00 0.00 37 1018.0
20260504081551 49 0 0.0 0.0 0.00 0.00 0.00 84 1018.9
20260504044540 53 0 0.0 0.0 0.00 0.00 0.00 79 1019.7
20260504043038 53 0 0.0 0.0 0.00 0.00 0.00 78 1019.7
20260504041539 54 0 0.0 0.0 0.00 0.00 0.00 77 1019.8
20260504040107 54 0 0.0 0.0 0.00 0.00 0.00 75 1019.8
20260504034541 54 0 0.0 0.0 0.00 0.00 0.00 74 1019.8
20260504033039 55 0 0.0 0.0 0.00 0.00 0.00 73 1019.7
20260504031539 55 0 0.0 0.0 0.00 0.00 0.00 72 1019.7
20260504030038 56 0 0.0 0.0 0.00 0.00 0.00 71 1019.5
20260504024547 56 0 0.0 0.0 0.00 0.00 0.00 69 1019.4
20260504023045 57 0 0.0 0.0 0.00 0.00 0.00 68 1019.4
20260504021540 58 0 0.0 0.0 0.00 0.00 0.00 67 1019.2
20260504020048 58 0 0.0 0.0 0.00 0.00 0.00 65 1018.9
20260504014559 59 0 0.0 0.0 0.00 0.00 0.00 63 1018.7
20260504013046 60 0 0.0 0.0 0.00 0.00 0.00 62 1018.8
20260504011543 61 0 0.0 0.0 0.00 0.00 0.00 60 1018.6
20260504010049 62 0 0.0 0.0 0.00 0.00 0.00 57 1018.4
20260504004545 64 0 0.0 0.0 0.00 0.00 0.00 54 1018.3
20260504003038 65 0 0.0 0.0 0.00 0.00 0.00 50 1018.0
20260504001546 66 0 0.0 0.0 0.00 0.00 0.00 47 1018.0
20260504000047 68 0 0.0 0.0 0.00 0.00 0.00 44 1018.0
20260503234541 70 0 0.0 0.0 0.00 0.00 0.00 41 1017.9
20260503233042 71 0 0.0 1.7 0.00 0.00 0.00 37 1017.7
20260503231539 72 0 0.0 3.5 0.00 0.00 0.00 34 1017.8
20260503230038 73 137 0.0 4.3 0.00 0.00 0.00 33 1017.8
20260503224546 73 0 0.0 2.6 0.00 0.00 0.00 32 1017.8
20260503223043 74 163 0.0 3.5 0.00 0.00 0.00 31 1017.8
20260503221550 74 132 0.9 5.2 0.00 0.00 0.00 31 1017.9
20260503220040 75 0 1.7 5.2 0.00 0.00 0.00 32 1018.1